SHU5600 UHWW-UHHH

Flight info

Callsign SHU5600
Flight time 0h 24m
Altitude 35000
Route DOLMA2P DOLMA B356 TD B355 ARDEL ARDEL6G
Aircraft A319/M-SDE3FGHIRWY/LB1

Departure

Time 2026-04-28 20:36
Airport Vladivostok International Airport (UHWW)

Arrival

Time 2026-04-28 21:00
Airport Khabarovsk Novy Airport (UHHH)
Time Latitude Longitude Altitude Speed Heading
2026-04-28 19:53 43.39743 132.16562 70 ft 0 kts 152°
2026-04-28 20:28 43.39756 132.16553 62 ft 4 kts 152°
2026-04-28 20:28 43.39779 132.16536 67 ft 4 kts 151°
2026-04-28 20:28 43.39800 132.16521 67 ft 2 kts 151°
2026-04-28 20:28 43.39820 132.16506 69 ft 4 kts 141°
2026-04-28 20:29 43.39825 132.16486 63 ft 4 kts 64°
2026-04-28 20:29 43.39813 132.16455 63 ft 4 kts 61°
2026-04-28 20:29 43.39809 132.16446 69 ft 0 kts 61°
2026-04-28 20:31 43.39809 132.16447 69 ft 1 kts 61°
2026-04-28 20:31 43.39826 132.16488 62 ft 9 kts 60°
2026-04-28 20:32 43.39859 132.16569 70 ft 0 kts 60°
2026-04-28 20:32 43.39862 132.16577 69 ft 3 kts 60°
2026-04-28 20:32 43.39886 132.16635 61 ft 10 kts 60°
2026-04-28 20:32 43.39921 132.16722 69 ft 11 kts 62°
2026-04-28 20:33 43.39962 132.16827 69 ft 15 kts 61°
2026-04-28 20:33 43.40016 132.16962 63 ft 17 kts 61°
2026-04-28 20:33 43.40086 132.17088 61 ft 17 kts 19°
2026-04-28 20:33 43.40192 132.17029 69 ft 17 kts 332°
2026-04-28 20:34 43.40301 132.16950 66 ft 18 kts 332°
2026-04-28 20:34 43.40416 132.16866 60 ft 18 kts 329°
2026-04-28 20:34 43.40421 132.16771 65 ft 0 kts 239°
2026-04-28 20:34 43.40417 132.16762 63 ft 2 kts 239°
2026-04-28 20:35 43.40409 132.16742 65 ft 3 kts 239°
2026-04-28 20:35 43.40365 132.16638 60 ft 41 kts 240°
2026-04-28 20:35 43.40099 132.15978 58 ft 114 kts 242°
2026-04-28 20:35 43.39618 132.14791 87 ft 167 kts 239°
2026-04-28 20:36 43.39020 132.13361 556 ft 174 kts 240°
2026-04-28 20:36 43.38435 132.11915 1188 ft 172 kts 240°
2026-04-28 20:36 43.37869 132.10503 1780 ft 172 kts 240°
2026-04-28 20:36 43.37260 132.08990 2072 ft 191 kts 240°
2026-04-28 20:37 43.36572 132.07288 2295 ft 215 kts 240°
2026-04-28 20:37 43.35829 132.05448 2799 ft 223 kts 240°
2026-04-28 20:37 43.35076 132.03576 3486 ft 224 kts 241°
2026-04-28 20:37 43.34173 132.01780 3904 ft 240 kts 221°
2026-04-28 20:38 43.32582 132.00924 4304 ft 260 kts 182°
2026-04-28 20:38 43.30840 132.01639 5123 ft 271 kts 146°
2026-04-28 20:38 43.29649 132.03667 5945 ft 281 kts 111°
2026-04-28 20:38 43.29440 132.06288 6761 ft 285 kts 81°
2026-04-28 20:39 43.29926 132.08934 7645 ft 287 kts 69°
2026-04-28 20:39 43.30614 132.11523 8500 ft 290 kts 67°
2026-04-28 20:39 43.31291 132.14151 9337 ft 294 kts 70°
2026-04-28 20:39 43.32455 132.19913 10827 ft 312 kts 75°
2026-04-28 20:40 43.34221 132.32631 13358 ft 348 kts 78°
2026-04-28 20:40 43.37460 132.45119 16062 ft 356 kts 43°
2026-04-28 20:40 43.46277 132.50343 18523 ft 359 kts 11°
2026-04-28 20:40 43.56104 132.54043 20848 ft 373 kts 11°
2026-04-28 20:41 43.66295 132.57858 22991 ft 385 kts 11°
2026-04-28 20:41 43.76802 132.61786 24903 ft 397 kts 11°
2026-04-28 20:41 43.86334 132.70266 26545 ft 424 kts 38°
2026-04-28 20:41 43.95295 132.81246 27997 ft 436 kts 37°
2026-04-28 20:42 44.04491 132.92620 29284 ft 449 kts 37°
2026-04-28 20:42 44.13862 133.04290 30680 ft 454 kts 38°
2026-04-28 20:42 44.23476 133.15544 31709 ft 460 kts 32°
2026-04-28 20:42 44.33787 133.26173 33027 ft 462 kts 32°
2026-04-28 20:43 44.44145 133.36916 34227 ft 464 kts 32°
2026-04-28 20:43 44.54544 133.47728 34963 ft 467 kts 32°
2026-04-28 20:43 44.64811 133.58432 34863 ft 461 kts 32°
2026-04-28 20:44 44.85237 133.79926 35006 ft 452 kts 32°
2026-04-28 20:44 45.05680 134.00723 35009 ft 456 kts 30°
2026-04-28 20:45 45.26379 134.21466 34815 ft 458 kts 31°
2026-04-28 20:45 45.46936 134.42279 34951 ft 451 kts 31°
2026-04-28 20:46 45.67412 134.63186 34892 ft 452 kts 31°
2026-04-28 20:46 45.87860 134.84114 34856 ft 449 kts 24°
2026-04-28 20:46 45.99460 134.87793 34917 ft 434 kts
2026-04-28 20:47 46.11506 134.89443 34906 ft 434 kts
2026-04-28 20:47 46.35497 134.92657 34859 ft 432 kts
2026-04-28 20:48 46.59368 134.95887 34833 ft 430 kts
2026-04-28 20:48 46.83124 135.00008 34781 ft 438 kts 18°
2026-04-28 20:49 47.04754 135.16285 34808 ft 440 kts 23°
2026-04-28 20:49 47.26096 135.32679 34828 ft 440 kts 24°
2026-04-28 20:50 47.33596 135.38458 34789 ft 440 kts 24°
2026-04-28 20:51 47.50005 135.51163 33028 ft 459 kts 24°
2026-04-28 20:51 47.61030 135.59772 31041 ft 439 kts 24°
2026-04-28 20:51 47.71520 135.67995 29036 ft 424 kts 25°
2026-04-28 20:51 47.78483 135.73469 27714 ft 414 kts 25°
2026-04-28 20:52 47.91547 135.84139 25258 ft 394 kts 26°
2026-04-28 20:52 48.00976 135.91901 23575 ft 380 kts 26°
2026-04-28 20:52 48.09803 136.00188 21848 ft 372 kts 39°
2026-04-28 20:52 48.17567 136.10145 20098 ft 363 kts 38°
2026-04-28 20:53 48.35879 136.15906 16690 ft 337 kts
2026-04-28 20:53 48.45000 136.16276 15155 ft 328 kts 359°
2026-04-28 20:53 48.53995 136.16597 13614 ft 319 kts 358°
2026-04-28 20:54 48.62566 136.14420 12058 ft 308 kts 346°
2026-04-28 20:54 48.66933 136.05432 10891 ft 276 kts 271°
2026-04-28 20:54 48.67209 135.93917 8996 ft 271 kts 273°
2026-04-28 20:54 48.67510 135.82719 7519 ft 264 kts 272°
2026-04-28 20:55 48.67777 135.71744 5987 ft 259 kts 271°
2026-04-28 20:55 48.68029 135.60974 4402 ft 254 kts 270°
2026-04-28 20:55 48.68251 135.50773 3469 ft 224 kts 270°
2026-04-28 20:55 48.68428 135.42499 3425 ft 162 kts 269°
2026-04-28 20:56 48.66213 135.36934 2573 ft 149 kts 222°
2026-04-28 20:56 48.64647 135.34780 2110 ft 143 kts 220°
2026-04-28 20:56 48.63912 135.33774 2012 ft 144 kts 221°
2026-04-28 20:56 48.63170 135.32757 2009 ft 145 kts 221°
2026-04-28 20:57 48.62430 135.31741 2010 ft 143 kts 220°
2026-04-28 20:57 48.61691 135.30727 1988 ft 144 kts 220°
2026-04-28 20:57 48.60952 135.29714 1873 ft 143 kts 220°
2026-04-28 20:57 48.60215 135.28704 1728 ft 143 kts 220°
2026-04-28 20:58 48.59490 135.27710 1569 ft 143 kts 220°
2026-04-28 20:58 48.58754 135.26703 1409 ft 143 kts 220°
2026-04-28 20:58 48.58019 135.25695 1233 ft 143 kts 220°
2026-04-28 20:58 48.57286 135.24693 1064 ft 142 kts 220°
2026-04-28 20:59 48.56553 135.23691 895 ft 142 kts 220°
2026-04-28 20:59 48.55824 135.22693 726 ft 141 kts 220°
2026-04-28 20:59 48.55120 135.21730 568 ft 133 kts 220°
2026-04-28 20:59 48.54440 135.20801 406 ft 131 kts 221°
2026-04-28 21:00 48.53766 135.19881 253 ft 130 kts 221°
2026-04-28 21:00 48.53295 135.19241 251 ft 49 kts 222°
2026-04-28 21:00 48.53202 135.19114 250 ft 0 kts 222°